Time,TemperatureF,DewpointF,PressureIn,WindDirection,WindDirectionDegrees,WindSpeedMPH,WindSpeedGustMPH,Humidity,HourlyPrecipIn,Conditions,Clouds,dailyrainin,SoftwareType,DateUTC
2013-07-30 00:01:00,78.1,58.5,31.03,SSE,165,12.0,-999.0,51,-99.99,,,0.00,meteohub,2013-07-30 04:01:00,
2013-07-30 00:03:00,77.9,57.7,31.03,South,183,11.0,-999.0,50,-99.99,,,0.00,meteohub,2013-07-30 04:03:00,
2013-07-30 00:06:00,77.9,57.7,31.03,SSW,196,11.0,-999.0,50,-99.99,,,0.00,meteohub,2013-07-30 04:06:00,
2013-07-30 00:07:00,77.9,57.2,31.03,SSE,167,10.0,-999.0,49,-99.99,,,0.00,meteohub,2013-07-30 04:07:00,
2013-07-30 00:13:00,77.9,57.2,31.03,South,185,15.0,-999.0,49,-99.99,,,0.00,meteohub,2013-07-30 04:13:00,
2013-07-30 00:18:00,77.9,57.2,31.03,South,187,9.0,-999.0,49,-99.99,,,0.00,meteohub,2013-07-30 04:18:00,
2013-07-30 00:23:00,77.9,57.2,31.03,South,172,11.0,-999.0,49,-99.99,,,0.00,meteohub,2013-07-30 04:23:00,
2013-07-30 00:29:00,77.7,57.0,31.03,SSW,197,11.0,-999.0,49,-99.99,,,0.00,meteohub,2013-07-30 04:29:00,
2013-07-30 00:34:00,77.7,56.5,31.03,South,176,11.0,-999.0,48,-99.99,,,0.00,meteohub,2013-07-30 04:34:00,
2013-07-30 00:40:00,77.5,56.3,31.03,South,171,13.0,13.0,48,0.00,,,0.00,meteohub,2013-07-30 04:40:00,
2013-07-30 00:45:00,77.5,56.3,31.03,South,181,9.0,13.0,48,0.00,,,0.00,meteohub,2013-07-30 04:45:00,
2013-07-30 00:50:00,77.5,56.3,31.03,South,179,9.0,13.0,48,0.00,,,0.00,meteohub,2013-07-30 04:50:00,
2013-07-30 00:56:00,77.5,56.3,31.03,South,191,8.0,13.0,48,0.00,,,0.00,meteohub,2013-07-30 04:56:00,
2013-07-30 01:02:00,77.5,56.3,31.03,South,169,8.0,13.0,48,0.00,,,0.00,meteohub,2013-07-30 05:02:00,
2013-07-30 01:07:00,77.4,56.7,31.03,SSW,210,9.0,13.0,49,0.00,,,0.00,meteohub,2013-07-30 05:07:00,
2013-07-30 01:12:00,77.2,56.5,31.03,South,183,6.0,13.0,49,0.00,,,0.00,meteohub,2013-07-30 05:12:00,
2013-07-30 01:17:00,77.0,55.8,31.03,SSW,194,7.0,12.0,48,0.00,,,0.00,meteohub,2013-07-30 05:17:00,
2013-07-30 01:22:00,76.8,56.3,31.03,SSW,198,6.0,12.0,49,0.00,,,0.00,meteohub,2013-07-30 05:22:00,
2013-07-30 01:27:00,76.6,56.1,31.03,SSW,197,6.0,12.0,49,-99.99,,,0.00,meteohub,2013-07-30 05:27:00,
2013-07-30 01:32:00,76.6,56.7,31.03,South,182,5.0,8.0,50,-99.99,,,0.00,meteohub,2013-07-30 05:32:00,
2013-07-30 01:37:00,76.5,56.5,31.03,SSW,196,6.0,8.0,50,-99.99,,,0.00,meteohub,2013-07-30 05:37:00,
2013-07-30 01:43:00,76.5,56.5,31.03,South,190,6.0,8.0,50,-99.99,,,0.00,meteohub,2013-07-30 05:43:00,
2013-07-30 01:48:00,76.3,56.3,31.03,SSW,198,5.0,8.0,50,0.00,,,0.00,meteohub,2013-07-30 05:48:00,
2013-07-30 01:53:00,76.3,56.3,31.03,SSW,203,6.0,8.0,50,0.00,,,0.00,meteohub,2013-07-30 05:53:00,
2013-07-30 01:58:00,76.1,56.1,31.03,SSW,193,5.0,8.0,50,-99.99,,,0.00,meteohub,2013-07-30 05:58:00,
2013-07-30 02:04:00,76.1,56.7,31.03,SSW,200,5.0,7.0,51,-99.99,,,0.00,meteohub,2013-07-30 06:04:00,
2013-07-30 02:09:00,75.9,56.5,31.03,South,188,6.0,7.0,51,-99.99,,,0.00,meteohub,2013-07-30 06:09:00,
2013-07-30 02:14:00,75.9,56.5,31.03,South,186,4.0,6.0,51,0.00,,,0.00,meteohub,2013-07-30 06:14:00,
2013-07-30 02:20:00,75.9,56.5,31.03,South,190,5.0,6.0,51,0.00,,,0.00,meteohub,2013-07-30 06:20:00,
2013-07-30 02:25:00,75.9,57.0,31.03,SSW,193,6.0,6.0,52,0.00,,,0.00,meteohub,2013-07-30 06:25:00,
2013-07-30 02:30:00,75.9,57.0,31.03,SSW,197,5.0,6.0,52,0.00,,,0.00,meteohub,2013-07-30 06:30:00,
2013-07-30 02:35:00,75.9,57.6,31.03,SSW,204,5.0,6.0,53,0.00,,,0.00,meteohub,2013-07-30 06:35:00,
2013-07-30 02:40:00,75.9,57.6,31.03,SSW,195,5.0,6.0,53,0.00,,,0.00,meteohub,2013-07-30 06:40:00,
2013-07-30 02:46:00,75.7,57.4,31.03,SSW,192,4.0,6.0,53,0.00,,,0.00,meteohub,2013-07-30 06:46:00,
2013-07-30 02:51:00,75.7,57.4,31.03,South,189,5.0,6.0,53,0.00,,,0.00,meteohub,2013-07-30 06:51:00,
2013-07-30 02:56:00,75.6,57.2,31.03,SSW,201,5.0,6.0,53,0.00,,,0.00,meteohub,2013-07-30 06:56:00,
2013-07-30 03:01:00,75.6,57.2,31.03,SSW,204,3.0,6.0,53,-99.99,,,0.00,meteohub,2013-07-30 07:01:00,
2013-07-30 03:06:00,75.6,57.7,31.03,SSW,205,4.0,6.0,54,-99.99,,,0.00,meteohub,2013-07-30 07:06:00,
2013-07-30 03:12:00,75.6,58.3,31.03,SSW,206,6.0,6.0,55,0.00,,,0.00,meteohub,2013-07-30 07:12:00,
2013-07-30 03:17:00,75.6,58.3,31.03,SSW,197,6.0,6.0,55,0.00,,,0.00,meteohub,2013-07-30 07:17:00,
2013-07-30 03:22:00,75.4,58.1,31.03,SSW,198,8.0,8.0,55,0.00,,,0.00,meteohub,2013-07-30 07:22:00,
2013-07-30 03:28:00,75.4,58.6,31.03,SSW,193,5.0,6.0,56,0.00,,,0.00,meteohub,2013-07-30 07:28:00,
2013-07-30 03:33:00,75.2,58.5,31.03,SSW,211,4.0,8.0,56,0.00,,,0.00,meteohub,2013-07-30 07:33:00,
2013-07-30 03:38:00,75.0,58.3,31.03,SW,222,3.0,8.0,56,0.00,,,0.00,meteohub,2013-07-30 07:38:00,
2013-07-30 03:44:00,74.8,58.6,31.03,SW,219,4.0,8.0,57,0.00,,,0.00,meteohub,2013-07-30 07:44:00,
2013-07-30 03:49:00,74.8,58.6,31.03,SW,217,4.0,6.0,57,0.00,,,0.00,meteohub,2013-07-30 07:49:00,
2013-07-30 03:54:00,74.7,58.5,31.03,South,184,4.0,6.0,57,0.00,,,0.00,meteohub,2013-07-30 07:54:00,
2013-07-30 03:59:00,74.5,58.3,31.03,SW,220,4.0,6.0,57,0.00,,,0.00,meteohub,2013-07-30 07:59:00,
2013-07-30 04:05:00,74.3,58.1,31.03,SW,231,3.0,-999.0,57,0.00,,,0.00,meteohub,2013-07-30 08:05:00,
2013-07-30 04:10:00,74.1,57.4,31.03,WSW,248,6.0,-999.0,56,0.00,,,0.00,meteohub,2013-07-30 08:10:00,
2013-07-30 04:15:00,74.1,56.8,31.03,SW,233,6.0,-999.0,55,0.00,,,0.00,meteohub,2013-07-30 08:15:00,
2013-07-30 04:21:00,73.9,56.8,31.03,WSW,245,5.0,-999.0,55,0.00,,,0.00,meteohub,2013-07-30 08:21:00,
2013-07-30 04:26:00,73.9,56.3,31.03,SW,225,6.0,-999.0,54,0.00,,,0.00,meteohub,2013-07-30 08:26:00,
2013-07-30 04:31:00,73.9,55.8,31.03,WSW,248,6.0,-999.0,53,0.00,,,0.00,meteohub,2013-07-30 08:31:00,
2013-07-30 04:36:00,73.8,55.6,31.03,WSW,258,5.0,-999.0,53,0.00,,,0.00,meteohub,2013-07-30 08:36:00,
2013-07-30 04:42:00,73.8,55.6,31.03,WSW,257,11.0,-999.0,53,0.00,,,0.00,meteohub,2013-07-30 08:42:00,
2013-07-30 04:47:00,73.8,55.6,31.03,WNW,285,5.0,-999.0,53,-99.99,,,0.00,meteohub,2013-07-30 08:47:00,
2013-07-30 04:52:00,73.8,55.6,31.03,WNW,289,8.0,-999.0,53,-99.99,,,0.00,meteohub,2013-07-30 08:52:00,
2013-07-30 04:57:00,73.8,55.6,31.03,WNW,288,9.0,-999.0,53,-99.99,,,0.00,meteohub,2013-07-30 08:57:00,
2013-07-30 05:02:00,73.8,56.1,31.03,West,262,8.0,-999.0,54,-99.99,,,0.00,meteohub,2013-07-30 09:02:00,
2013-07-30 05:07:00,73.8,56.1,31.03,SW,215,4.0,-999.0,54,-99.99,,,0.00,meteohub,2013-07-30 09:07:00,
2013-07-30 05:13:00,73.8,56.1,31.03,West,265,9.0,-999.0,54,-99.99,,,0.00,meteohub,2013-07-30 09:13:00,
2013-07-30 05:18:00,73.8,56.1,31.03,WNW,301,5.0,-999.0,54,-99.99,,,0.00,meteohub,2013-07-30 09:18:00,
2013-07-30 05:24:00,73.8,56.7,31.03,WSW,245,8.0,-999.0,55,-99.99,,,0.00,meteohub,2013-07-30 09:24:00,
2013-07-30 05:29:00,73.6,56.5,31.03,West,279,8.0,-999.0,55,-99.99,,,0.00,meteohub,2013-07-30 09:29:00,
2013-07-30 05:34:00,73.6,56.5,31.03,WNW,282,6.0,-999.0,55,-99.99,,,0.00,meteohub,2013-07-30 09:34:00,
2013-07-30 05:40:00,73.4,56.3,31.03,West,281,5.0,-999.0,55,-99.99,,,0.00,meteohub,2013-07-30 09:40:00,
2013-07-30 05:45:00,73.2,56.1,31.03,NW,320,8.0,-999.0,55,-99.99,,,0.00,meteohub,2013-07-30 09:45:00,
2013-07-30 05:50:00,73.0,56.5,31.03,West,264,8.0,-999.0,56,-99.99,,,0.00,meteohub,2013-07-30 09:50:00,
2013-07-30 05:55:00,72.9,56.3,31.03,WSW,257,9.0,-999.0,56,-99.99,,,0.00,meteohub,2013-07-30 09:55:00,
2013-07-30 06:00:00,72.9,56.3,31.03,West,268,6.0,-999.0,56,-99.99,,,0.00,meteohub,2013-07-30 10:00:00,
2013-07-30 06:06:00,72.7,56.1,31.03,WSW,257,6.0,-999.0,56,-99.99,,,0.00,meteohub,2013-07-30 10:06:00,
2013-07-30 06:11:00,72.9,56.7,31.03,WNW,289,8.0,-999.0,57,-99.99,,,0.00,meteohub,2013-07-30 10:11:00,
2013-07-30 06:16:00,72.9,56.7,31.03,WSW,237,6.0,-999.0,57,-99.99,,,0.00,meteohub,2013-07-30 10:16:00,
2013-07-30 06:22:00,72.7,56.5,31.03,SW,232,9.0,-999.0,57,-99.99,,,0.00,meteohub,2013-07-30 10:22:00,
2013-07-30 06:27:00,72.7,56.1,31.03,West,268,8.0,-999.0,56,-99.99,,,0.00,meteohub,2013-07-30 10:27:00,
2013-07-30 06:32:00,72.5,55.9,31.03,WNW,295,6.0,-999.0,56,-99.99,,,0.00,meteohub,2013-07-30 10:32:00,
2013-07-30 06:37:00,72.5,55.9,31.03,West,259,11.0,-999.0,56,-99.99,,,0.00,meteohub,2013-07-30 10:37:00,
2013-07-30 06:43:00,72.5,55.9,31.03,NW,308,4.0,-999.0,56,-99.99,,,0.00,meteohub,2013-07-30 10:43:00,
2013-07-30 06:48:00,72.5,55.9,31.03,West,267,8.0,-999.0,56,-99.99,,,0.00,meteohub,2013-07-30 10:48:00,
2013-07-30 06:53:00,72.5,55.9,31.03,WSW,258,6.0,-999.0,56,-99.99,,,0.00,meteohub,2013-07-30 10:53:00,
2013-07-30 06:58:00,72.5,55.9,31.03,WNW,299,6.0,-999.0,56,-99.99,,,0.00,meteohub,2013-07-30 10:58:00,
2013-07-30 07:04:00,72.5,55.9,31.03,West,281,6.0,-999.0,56,-99.99,,,0.00,meteohub,2013-07-30 11:04:00,
2013-07-30 07:09:00,72.5,55.9,31.03,West,266,6.0,-999.0,56,-99.99,,,0.00,meteohub,2013-07-30 11:09:00,
2013-07-30 07:14:00,72.5,55.9,31.03,West,268,6.0,-999.0,56,-99.99,,,0.00,meteohub,2013-07-30 11:14:00,
2013-07-30 07:19:00,72.7,56.1,31.03,WNW,284,8.0,-999.0,56,-99.99,,,0.00,meteohub,2013-07-30 11:19:00,
2013-07-30 07:25:00,72.7,56.1,31.03,West,269,8.0,-999.0,56,-99.99,,,0.00,meteohub,2013-07-30 11:25:00,
2013-07-30 07:30:00,72.9,56.3,31.03,WSW,258,9.0,-999.0,56,-99.99,,,0.00,meteohub,2013-07-30 11:30:00,
2013-07-30 07:35:00,72.9,56.3,31.03,WSW,255,6.0,-999.0,56,-99.99,,,0.00,meteohub,2013-07-30 11:35:00,
2013-07-30 07:41:00,72.9,56.3,31.03,West,271,8.0,-999.0,56,-99.99,,,0.00,meteohub,2013-07-30 11:41:00,
2013-07-30 07:46:00,72.9,56.3,31.03,WSW,254,6.0,-999.0,56,-99.99,,,0.00,meteohub,2013-07-30 11:46:00,
2013-07-30 07:52:00,73.0,56.5,31.03,West,272,8.0,-999.0,56,-99.99,,,0.00,meteohub,2013-07-30 11:52:00,
2013-07-30 07:57:00,73.2,56.1,31.03,West,264,6.0,-999.0,55,-99.99,,,0.00,meteohub,2013-07-30 11:57:00,
2013-07-30 08:02:00,73.4,56.3,31.03,WSW,245,6.0,-999.0,55,-99.99,,,0.00,meteohub,2013-07-30 12:02:00,
2013-07-30 08:07:00,73.4,55.8,31.03,West,264,8.0,-999.0,54,-99.99,,,0.00,meteohub,2013-07-30 12:07:00,
2013-07-30 08:12:00,73.8,56.1,31.03,West,276,8.0,-999.0,54,-99.99,,,0.00,meteohub,2013-07-30 12:12:00,
2013-07-30 08:18:00,73.8,55.0,31.03,WSW,249,8.0,-999.0,52,-99.99,,,0.00,meteohub,2013-07-30 12:18:00,
2013-07-30 08:23:00,73.0,51.6,31.03,West,266,6.0,-999.0,47,-99.99,,,0.00,meteohub,2013-07-30 12:23:00,
2013-07-30 08:28:00,73.0,50.4,31.03,West,280,5.0,-999.0,45,-99.99,,,0.00,meteohub,2013-07-30 12:28:00,
2013-07-30 08:34:00,73.0,50.4,31.03,SSW,213,9.0,-999.0,45,-99.99,,,0.00,meteohub,2013-07-30 12:34:00,
2013-07-30 08:39:00,72.5,45.5,31.03,West,259,9.0,-999.0,38,-99.99,,,0.00,meteohub,2013-07-30 12:39:00,
2013-07-30 08:44:00,72.7,44.2,31.03,West,267,9.0,-999.0,36,-99.99,,,0.00,meteohub,2013-07-30 12:44:00,
2013-07-30 08:49:00,72.9,42.8,31.03,WSW,239,7.0,-999.0,34,-99.99,,,0.00,meteohub,2013-07-30 12:49:00,
2013-07-30 08:54:00,73.0,42.3,31.03,WSW,251,8.0,-999.0,33,-99.99,,,0.00,meteohub,2013-07-30 12:54:00,
2013-07-30 08:59:00,73.2,41.5,31.03,West,270,11.0,-999.0,32,-99.99,,,0.00,meteohub,2013-07-30 12:59:00,
2013-07-30 09:05:00,73.6,41.9,31.03,West,269,4.0,-999.0,32,-99.99,,,0.00,meteohub,2013-07-30 13:05:00,
2013-07-30 09:10:00,73.6,41.0,31.03,SW,220,6.0,-999.0,31,-99.99,,,0.00,meteohub,2013-07-30 13:10:00,
2013-07-30 09:15:00,73.6,38.5,31.03,WSW,240,6.0,-999.0,28,-99.99,,,0.00,meteohub,2013-07-30 13:15:00,
2013-07-30 09:20:00,73.8,38.7,31.03,West,279,6.0,-999.0,28,-99.99,,,0.00,meteohub,2013-07-30 13:20:00,
2013-07-30 09:25:00,74.1,37.0,31.03,North,353,5.0,-999.0,26,-99.99,,,0.00,meteohub,2013-07-30 13:25:00,
2013-07-30 09:31:00,74.5,36.3,31.03,West,281,9.0,-999.0,25,-99.99,,,0.00,meteohub,2013-07-30 13:31:00,
2013-07-30 09:36:00,74.7,36.5,31.03,WSW,247,6.0,-999.0,25,-99.99,,,0.00,meteohub,2013-07-30 13:36:00,
2013-07-30 09:41:00,74.5,35.2,31.03,West,281,4.0,-999.0,24,-99.99,,,0.00,meteohub,2013-07-30 13:41:00,
2013-07-30 09:46:00,75.2,37.0,31.03,West,274,8.0,-999.0,25,-99.99,,,0.00,meteohub,2013-07-30 13:46:00,
2013-07-30 09:52:00,74.8,34.5,31.03,SW,230,5.0,-999.0,23,-99.99,,,0.00,meteohub,2013-07-30 13:52:00,
2013-07-30 09:57:00,74.7,34.3,31.03,West,276,12.0,-999.0,23,-99.99,,,0.00,meteohub,2013-07-30 13:57:00,
2013-07-30 10:02:00,74.8,34.5,31.03,WSW,251,8.0,-999.0,23,-99.99,,,0.00,meteohub,2013-07-30 14:02:00,
2013-07-30 10:08:00,74.8,34.5,31.03,WSW,256,11.0,-999.0,23,-99.99,,,0.00,meteohub,2013-07-30 14:08:00,
2013-07-30 10:13:00,74.8,33.4,31.03,WNW,284,8.0,-999.0,22,-99.99,,,0.00,meteohub,2013-07-30 14:13:00,
2013-07-30 10:18:00,75.2,33.8,31.03,WNW,289,5.0,-999.0,22,-99.99,,,0.00,meteohub,2013-07-30 14:18:00,
2013-07-30 10:23:00,75.2,33.8,31.03,WSW,252,6.0,-999.0,22,-99.99,,,0.00,meteohub,2013-07-30 14:23:00,
2013-07-30 10:29:00,75.2,32.5,31.03,SW,225,15.0,-999.0,21,-99.99,,,0.00,meteohub,2013-07-30 14:29:00,
2013-07-30 10:34:00,75.6,34.0,31.03,West,279,7.0,-999.0,22,-99.99,,,0.00,meteohub,2013-07-30 14:34:00,
2013-07-30 10:39:00,76.5,34.9,31.03,West,261,11.0,-999.0,22,-99.99,,,0.00,meteohub,2013-07-30 14:39:00,
2013-07-30 10:44:00,76.3,33.4,31.03,SW,217,8.0,-999.0,21,-99.99,,,0.00,meteohub,2013-07-30 14:44:00,
2013-07-30 10:50:00,76.3,34.7,31.03,SW,225,8.0,-999.0,22,-99.99,,,0.00,meteohub,2013-07-30 14:50:00,
2013-07-30 10:55:00,76.8,34.0,31.03,WSW,240,8.0,-999.0,21,-99.99,,,0.00,meteohub,2013-07-30 14:55:00,
2013-07-30 11:00:00,76.8,34.0,31.03,South,190,10.0,-999.0,21,-99.99,,,0.00,meteohub,2013-07-30 15:00:00,
2013-07-30 11:05:00,77.9,34.9,31.03,WNW,283,10.0,-999.0,21,-99.99,,,0.00,meteohub,2013-07-30 15:05:00,
2013-07-30 11:10:00,79.2,34.7,31.03,West,280,6.0,-999.0,20,-99.99,,,0.00,meteohub,2013-07-30 15:10:00,
2013-07-30 11:15:00,79.9,31.1,31.03,NW,317,9.0,-999.0,17,-99.99,,,0.00,meteohub,2013-07-30 15:15:00,
2013-07-30 11:21:00,80.1,28.2,31.03,West,275,5.0,-999.0,15,-99.99,,,0.00,meteohub,2013-07-30 15:21:00,
2013-07-30 11:26:00,79.3,27.7,31.03,NW,309,3.0,-999.0,15,-99.99,,,0.00,meteohub,2013-07-30 15:26:00,
2013-07-30 11:31:00,78.4,23.5,31.03,WSW,256,9.0,-999.0,13,-99.99,,,0.00,meteohub,2013-07-30 15:31:00,
2013-07-30 11:37:00,79.0,30.4,31.03,WSW,258,9.0,-999.0,17,-99.99,,,0.00,meteohub,2013-07-30 15:37:00,
2013-07-30 11:42:00,79.5,27.9,31.03,West,261,12.0,-999.0,15,-99.99,,,0.00,meteohub,2013-07-30 15:42:00,
2013-07-30 11:47:00,79.7,28.0,31.03,WNW,293,6.0,-999.0,15,-99.99,,,0.00,meteohub,2013-07-30 15:47:00,
2013-07-30 11:53:00,80.2,28.4,31.03,SW,228,11.0,-999.0,15,-99.99,,,0.00,meteohub,2013-07-30 15:53:00,
2013-07-30 11:58:00,79.0,22.1,31.03,WSW,245,6.0,-999.0,12,-99.99,,,0.00,meteohub,2013-07-30 15:58:00,
2013-07-30 12:03:00,79.3,18.0,31.03,NW,317,13.0,-999.0,10,-99.99,,,0.00,meteohub,2013-07-30 16:03:00,
2013-07-30 12:08:00,80.2,23.0,31.03,West,264,8.0,-999.0,12,-99.99,,,0.00,meteohub,2013-07-30 16:08:00,
2013-07-30 12:14:00,81.0,23.5,31.03,WSW,239,8.0,-999.0,12,-99.99,,,0.58,meteohub,2013-07-30 16:14:00,
2013-07-30 12:19:00,81.1,11.3,31.03,NW,319,6.0,-999.0,7,-99.99,,,0.58,meteohub,2013-07-30 16:19:00,
2013-07-30 12:24:00,81.0,11.1,31.03,WSW,252,8.0,-999.0,7,-99.99,,,0.58,meteohub,2013-07-30 16:24:00,
2013-07-30 12:30:00,81.3,17.1,31.03,West,259,8.0,-999.0,9,-99.99,,,0.58,meteohub,2013-07-30 16:30:00,
2013-07-30 12:35:00,81.9,17.4,31.03,West,266,6.0,-999.0,9,-99.99,,,0.58,meteohub,2013-07-30 16:35:00,
2013-07-30 12:40:00,82.6,8.8,31.03,NW,319,4.0,-999.0,6,-99.99,,,0.00,meteohub,2013-07-30 16:40:00,
2013-07-30 12:45:00,83.1,9.1,31.03,WNW,301,4.0,-999.0,6,-99.99,,,0.00,meteohub,2013-07-30 16:45:00,
2013-07-30 12:50:00,83.5,0.7,31.03,NW,310,11.0,-999.0,4,-99.99,,,0.00,meteohub,2013-07-30 16:50:00,
2013-07-30 12:56:00,82.6,0.0,31.03,SW,227,5.0,-999.0,4,-99.99,,,0.00,meteohub,2013-07-30 16:56:00,
2013-07-30 13:01:00,83.1,0.3,31.03,West,261,6.0,-999.0,4,-99.99,,,0.00,meteohub,2013-07-30 17:01:00,
2013-07-30 13:06:00,83.8,0.9,31.03,WNW,289,0.0,-999.0,4,-99.99,,,0.00,meteohub,2013-07-30 17:06:00,
2013-07-30 13:12:00,84.6,-4.7,31.03,West,278,8.0,-999.0,3,-99.99,,,0.00,meteohub,2013-07-30 17:12:00,
2013-07-30 13:17:00,84.4,-13.0,31.03,WNW,300,8.0,-999.0,2,-99.99,,,0.00,meteohub,2013-07-30 17:17:00,
2013-07-30 13:22:00,84.4,-13.0,31.03,WNW,285,6.0,-999.0,2,-99.99,,,0.00,meteohub,2013-07-30 17:22:00,
2013-07-30 13:27:00,84.7,-12.8,31.03,SSW,205,3.0,-999.0,2,-99.99,,,0.00,meteohub,2013-07-30 17:27:00,
2013-07-30 13:32:00,85.1,-12.6,31.03,West,264,0.0,-999.0,2,-99.99,,,0.00,meteohub,2013-07-30 17:32:00,
2013-07-30 13:37:00,84.9,-12.6,31.03,NW,304,8.0,-999.0,2,-99.99,,,0.00,meteohub,2013-07-30 17:37:00,
2013-07-30 13:43:00,84.6,-13.0,31.03,West,276,4.0,-999.0,2,-99.99,,,0.00,meteohub,2013-07-30 17:43:00,
2013-07-30 13:48:00,85.1,-12.6,31.03,WNW,298,6.0,-999.0,2,-99.99,,,0.00,meteohub,2013-07-30 17:48:00,
2013-07-30 13:53:00,85.3,-12.5,31.03,NW,320,6.0,-999.0,2,-99.99,,,0.58,meteohub,2013-07-30 17:53:00,
2013-07-30 13:58:00,85.6,-12.3,31.03,West,272,3.0,-999.0,2,-99.99,,,0.58,meteohub,2013-07-30 17:58:00,
2013-07-30 14:03:00,86.0,-12.1,31.03,NW,308,4.0,-999.0,2,-99.99,,,0.58,meteohub,2013-07-30 18:03:00,
2013-07-30 14:08:00,86.0,-12.1,31.03,WSW,255,0.0,-999.0,2,-99.99,,,0.58,meteohub,2013-07-30 18:08:00,
2013-07-30 14:13:00,86.2,-11.9,31.03,NW,319,6.0,-999.0,2,-99.99,,,0.58,meteohub,2013-07-30 18:13:00,
2013-07-30 14:19:00,86.2,-11.9,31.03,North,4,0.0,-999.0,2,-99.99,,,0.58,meteohub,2013-07-30 18:19:00,
2013-07-30 14:24:00,85.6,-12.3,31.03,NW,305,0.0,-999.0,2,-99.99,,,0.58,meteohub,2013-07-30 18:24:00,
2013-07-30 14:29:00,85.3,-12.5,31.03,ENE,59,0.0,-999.0,2,-99.99,,,0.58,meteohub,2013-07-30 18:29:00,
2013-07-30 14:34:00,85.5,-12.5,31.03,SE,144,0.0,-999.0,2,-99.99,,,0.58,meteohub,2013-07-30 18:34:00,
2013-07-30 14:39:00,85.3,-12.5,31.03,ESE,114,3.0,-999.0,2,-99.99,,,0.58,meteohub,2013-07-30 18:39:00,
2013-07-30 14:45:00,85.8,-12.1,31.03,ESE,113,6.0,-999.0,2,-99.99,,,0.58,meteohub,2013-07-30 18:45:00,
2013-07-30 14:50:00,85.8,-12.1,31.03,ESE,119,6.0,-999.0,2,-99.99,,,0.58,meteohub,2013-07-30 18:50:00,
2013-07-30 14:55:00,85.5,-12.5,31.03,SE,138,6.0,-999.0,2,-99.99,,,0.58,meteohub,2013-07-30 18:55:00,
2013-07-30 15:00:00,85.8,-12.1,31.03,ESE,120,4.0,-999.0,2,-99.99,,,0.58,meteohub,2013-07-30 19:00:00,
2013-07-30 15:06:00,86.4,-11.7,31.03,ESE,112,4.0,-999.0,2,-99.99,,,0.58,meteohub,2013-07-30 19:06:00,
2013-07-30 15:11:00,86.5,-11.7,31.03,ESE,107,3.0,-999.0,2,-99.99,,,0.58,meteohub,2013-07-30 19:11:00,
2013-07-30 15:16:00,86.4,-11.7,31.03,ESE,116,6.0,-999.0,2,-99.99,,,0.58,meteohub,2013-07-30 19:16:00,
2013-07-30 15:22:00,86.4,-11.7,31.03,ESE,103,4.0,-999.0,2,-99.99,,,0.58,meteohub,2013-07-30 19:22:00,
2013-07-30 15:27:00,86.4,-11.7,31.03,ESE,122,8.0,-999.0,2,-99.99,,,0.58,meteohub,2013-07-30 19:27:00,
2013-07-30 15:32:00,86.2,-11.9,31.03,ESE,110,6.0,-999.0,2,-99.99,,,0.58,meteohub,2013-07-30 19:32:00,
2013-07-30 15:37:00,85.5,-12.5,31.03,ESE,115,8.0,-999.0,2,-99.99,,,0.00,meteohub,2013-07-30 19:37:00,
2013-07-30 15:42:00,85.3,-12.5,31.03,ESE,106,5.0,-999.0,2,-99.99,,,0.00,meteohub,2013-07-30 19:42:00,
2013-07-30 15:48:00,85.5,-12.5,31.03,East,98,6.0,-999.0,2,-99.99,,,0.00,meteohub,2013-07-30 19:48:00,
2013-07-30 15:53:00,85.3,-12.5,31.03,ESE,103,8.0,-999.0,2,-99.99,,,0.00,meteohub,2013-07-30 19:53:00,
2013-07-30 15:58:00,84.9,-12.6,31.03,ESE,113,6.0,-999.0,2,-99.99,,,0.00,meteohub,2013-07-30 19:58:00,
2013-07-30 16:04:00,84.4,-13.0,31.03,East,92,6.0,-999.0,2,-99.99,,,0.00,meteohub,2013-07-30 20:04:00,
2013-07-30 16:09:00,84.6,-4.7,31.03,ESE,104,4.0,-999.0,3,-99.99,,,0.00,meteohub,2013-07-30 20:09:00,
2013-07-30 16:14:00,84.6,-4.7,31.03,East,101,5.0,-999.0,3,-99.99,,,0.00,meteohub,2013-07-30 20:14:00,
2013-07-30 16:15:00,84.6,-4.7,31.03,ESE,118,8.0,-999.0,3,-99.99,,,0.00,meteohub,2013-07-30 20:15:00,
2013-07-30 16:20:00,84.4,-4.9,31.03,SE,132,6.0,-999.0,3,-99.99,,,0.00,meteohub,2013-07-30 20:20:00,
2013-07-30 16:26:00,83.8,0.9,31.03,East,99,8.0,-999.0,4,-99.99,,,0.00,meteohub,2013-07-30 20:26:00,
2013-07-30 16:31:00,83.7,0.7,31.03,ESE,118,8.0,-999.0,4,-99.99,,,0.00,meteohub,2013-07-30 20:31:00,
2013-07-30 16:36:00,83.7,-13.5,31.03,East,97,6.0,-999.0,2,-99.99,,,0.00,meteohub,2013-07-30 20:36:00,
2013-07-30 16:42:00,83.1,0.3,31.03,East,91,5.0,-999.0,4,-99.99,,,0.00,meteohub,2013-07-30 20:42:00,
2013-07-30 16:47:00,82.6,-14.3,31.03,NE,56,6.0,-999.0,2,-99.99,,,0.00,meteohub,2013-07-30 20:47:00,
2013-07-30 16:52:00,82.6,0.0,31.03,ENE,72,6.0,-999.0,4,-99.99,,,0.00,meteohub,2013-07-30 20:52:00,
2013-07-30 16:57:00,82.2,-0.2,31.03,East,98,6.0,-999.0,4,-99.99,,,0.00,meteohub,2013-07-30 20:57:00,
2013-07-30 17:02:00,81.9,-0.4,31.03,East,84,7.0,-999.0,4,-99.99,,,0.00,meteohub,2013-07-30 21:02:00,
2013-07-30 17:07:00,81.7,-0.6,31.03,NE,45,5.0,-999.0,4,-99.99,,,0.00,meteohub,2013-07-30 21:07:00,
2013-07-30 17:12:00,81.3,-0.9,31.03,ENE,76,7.0,-999.0,4,-99.99,,,0.00,meteohub,2013-07-30 21:12:00,
2013-07-30 17:18:00,81.3,-0.9,31.03,East,80,5.0,-999.0,4,-99.99,,,0.00,meteohub,2013-07-30 21:18:00,
2013-07-30 17:23:00,81.3,-0.9,31.03,East,97,5.0,-999.0,4,-99.99,,,0.00,meteohub,2013-07-30 21:23:00,
2013-07-30 17:28:00,81.7,-0.6,31.03,East,88,4.0,-999.0,4,-99.99,,,0.00,meteohub,2013-07-30 21:28:00,
2013-07-30 17:33:00,81.9,11.8,31.03,East,87,3.0,-999.0,7,-99.99,,,0.00,meteohub,2013-07-30 21:33:00,
2013-07-30 17:38:00,81.7,11.7,31.03,ENE,75,5.0,-999.0,7,-99.99,,,0.00,meteohub,2013-07-30 21:38:00,
2013-07-30 17:44:00,81.3,11.3,31.03,East,93,3.0,-999.0,7,-99.99,,,0.00,meteohub,2013-07-30 21:44:00,
2013-07-30 17:49:00,81.3,-0.9,31.03,ESE,114,4.0,-999.0,4,-99.99,,,0.00,meteohub,2013-07-30 21:49:00,
2013-07-30 17:54:00,81.1,-0.9,31.03,East,89,5.0,-999.0,4,-99.99,,,0.00,meteohub,2013-07-30 21:54:00,
2013-07-30 18:00:00,81.1,-0.9,31.03,SE,128,5.0,-999.0,4,-99.99,,,0.00,meteohub,2013-07-30 22:00:00,
2013-07-30 18:05:00,81.1,16.9,31.03,SE,142,4.0,-999.0,9,-99.99,,,0.00,meteohub,2013-07-30 22:05:00,
2013-07-30 18:10:00,80.8,23.4,31.03,SE,145,8.0,-999.0,12,-99.99,,,0.00,meteohub,2013-07-30 22:10:00,
2013-07-30 18:15:00,80.2,28.4,31.03,SSE,155,5.0,-999.0,15,-99.99,,,0.00,meteohub,2013-07-30 22:15:00,
2013-07-30 18:20:00,79.7,31.1,31.03,SSE,155,5.0,-999.0,17,-99.99,,,0.00,meteohub,2013-07-30 22:20:00,
2013-07-30 18:26:00,79.3,30.7,31.03,SE,144,8.0,-999.0,17,-99.99,,,0.00,meteohub,2013-07-30 22:26:00,
2013-07-30 18:31:00,79.5,34.9,31.03,SE,129,8.0,-999.0,20,-99.99,,,0.00,meteohub,2013-07-30 22:31:00,
2013-07-30 18:32:00,79.3,34.7,31.03,ESE,123,10.0,-999.0,20,-99.99,,,0.00,meteohub,2013-07-30 22:32:00,
2013-07-30 18:37:00,79.5,34.9,31.03,SE,139,11.0,-999.0,20,-99.99,,,0.00,meteohub,2013-07-30 22:37:00,
2013-07-30 18:42:00,79.5,36.1,31.03,SSE,160,9.0,-999.0,21,-99.99,,,0.00,meteohub,2013-07-30 22:42:00,
2013-07-30 18:47:00,79.2,35.8,31.03,SSE,164,6.0,-999.0,21,-99.99,,,0.00,meteohub,2013-07-30 22:47:00,
2013-07-30 18:52:00,79.0,35.8,31.03,SSE,151,8.0,-999.0,21,-99.99,,,0.00,meteohub,2013-07-30 22:52:00,
2013-07-30 18:57:00,78.6,36.7,31.03,ESE,114,6.0,-999.0,22,-99.99,,,0.00,meteohub,2013-07-30 22:57:00,
2013-07-30 19:02:00,78.6,37.8,31.03,ESE,117,7.0,-999.0,23,-99.99,,,0.00,meteohub,2013-07-30 23:02:00,
2013-07-30 19:07:00,78.6,38.8,31.03,SSE,153,5.0,-999.0,24,-99.99,,,0.00,meteohub,2013-07-30 23:07:00,
2013-07-30 19:13:00,78.4,38.7,31.03,South,169,8.0,-999.0,24,-99.99,,,0.00,meteohub,2013-07-30 23:13:00,
2013-07-30 19:18:00,78.1,37.2,31.03,SSW,194,6.0,-999.0,23,-99.99,,,0.00,meteohub,2013-07-30 23:18:00,
2013-07-30 19:23:00,77.7,35.8,31.03,South,170,9.0,-999.0,22,-99.99,,,0.00,meteohub,2013-07-30 23:23:00,
2013-07-30 19:28:00,77.5,34.5,31.03,South,169,8.0,-999.0,21,-99.99,,,0.00,meteohub,2013-07-30 23:28:00,
2013-07-30 19:33:00,77.4,34.3,31.03,SE,141,8.0,-999.0,21,-99.99,,,0.00,meteohub,2013-07-30 23:33:00,
2013-07-30 19:39:00,77.2,34.2,31.03,South,177,10.0,-999.0,21,-99.99,,,0.00,meteohub,2013-07-30 23:39:00,
2013-07-30 19:44:00,77.0,34.2,31.03,SSE,168,8.0,-999.0,21,-99.99,,,0.00,meteohub,2013-07-30 23:44:00,
2013-07-30 19:49:00,76.8,34.0,31.03,South,180,5.0,-999.0,21,-99.99,,,0.00,meteohub,2013-07-30 23:49:00,
2013-07-30 19:54:00,76.8,34.0,31.03,SSE,157,11.0,-999.0,21,-99.99,,,0.00,meteohub,2013-07-30 23:54:00,
2013-07-30 19:59:00,76.6,33.8,31.03,SSE,152,9.0,-999.0,21,-99.99,,,0.00,meteohub,2013-07-30 23:59:00,
2013-07-30 20:05:00,76.6,34.9,31.03,South,177,11.0,-999.0,22,-99.99,,,0.00,meteohub,2013-07-31 00:05:00,
2013-07-30 20:10:00,76.5,34.9,31.03,SSW,192,10.0,-999.0,22,-99.99,,,0.00,meteohub,2013-07-31 00:10:00,
2013-07-30 20:15:00,76.5,34.9,31.03,South,187,9.0,-999.0,22,-99.99,,,0.00,meteohub,2013-07-31 00:15:00,
2013-07-30 20:20:00,76.3,35.8,31.03,South,191,8.0,-999.0,23,-99.99,,,0.00,meteohub,2013-07-31 00:20:00,
2013-07-30 20:25:00,76.1,35.6,31.03,SSW,192,10.0,-999.0,23,-99.99,,,0.00,meteohub,2013-07-31 00:25:00,
2013-07-30 20:31:00,76.1,36.7,31.03,South,186,11.0,-999.0,24,-99.99,,,0.00,meteohub,2013-07-31 00:31:00,
2013-07-30 20:36:00,76.3,36.9,31.03,South,169,8.0,-999.0,24,-99.99,,,0.00,meteohub,2013-07-31 00:36:00,
2013-07-30 20:41:00,76.1,37.8,31.03,SSW,198,8.0,-999.0,25,-99.99,,,0.00,meteohub,2013-07-31 00:41:00,
2013-07-30 20:46:00,75.9,38.7,31.03,South,184,9.0,-999.0,26,-99.99,,,0.00,meteohub,2013-07-31 00:46:00,
2013-07-30 20:51:00,75.9,38.7,31.03,South,191,6.0,-999.0,26,-99.99,,,0.00,meteohub,2013-07-31 00:51:00,
2013-07-30 20:56:00,75.7,39.4,31.03,South,186,9.0,-999.0,27,-99.99,,,0.00,meteohub,2013-07-31 00:56:00,
2013-07-30 21:02:00,75.7,40.3,31.03,South,176,8.0,-999.0,28,-99.99,,,0.00,meteohub,2013-07-31 01:02:00,
2013-07-30 21:07:00,75.7,41.2,31.03,SSW,196,7.0,-999.0,29,-99.99,,,0.00,meteohub,2013-07-31 01:07:00,
2013-07-30 21:12:00,75.7,42.1,31.03,SSE,168,5.0,-999.0,30,-99.99,,,0.00,meteohub,2013-07-31 01:12:00,
2013-07-30 21:17:00,75.7,42.1,31.03,SSW,204,7.0,-999.0,30,-99.99,,,0.00,meteohub,2013-07-31 01:17:00,
2013-07-30 21:22:00,75.7,42.1,31.03,SSW,201,5.0,-999.0,30,-99.99,,,0.00,meteohub,2013-07-31 01:22:00,
2013-07-30 21:27:00,75.7,43.0,31.03,SSW,195,5.0,-999.0,31,-99.99,,,0.00,meteohub,2013-07-31 01:27:00,
2013-07-30 21:32:00,75.6,42.8,31.03,SSW,195,0.0,-999.0,31,-99.99,,,0.00,meteohub,2013-07-31 01:32:00,
2013-07-30 21:37:00,75.6,42.8,31.03,SSW,195,3.0,-999.0,31,-99.99,,,0.00,meteohub,2013-07-31 01:37:00,
2013-07-30 21:43:00,75.4,42.6,31.03,SSW,199,3.0,-999.0,31,-99.99,,,0.00,meteohub,2013-07-31 01:43:00,
2013-07-30 21:48:00,75.2,42.4,31.03,SSW,198,3.0,-999.0,31,-99.99,,,0.00,meteohub,2013-07-31 01:48:00,
2013-07-30 21:53:00,75.0,42.3,31.03,SSW,198,3.0,-999.0,31,-99.99,,,0.00,meteohub,2013-07-31 01:53:00,
2013-07-30 21:59:00,74.8,42.3,31.03,SSW,207,2.0,-999.0,31,-99.99,,,0.00,meteohub,2013-07-31 01:59:00,
2013-07-30 22:04:00,74.7,42.8,31.03,SSW,207,2.0,-999.0,32,-99.99,,,0.00,meteohub,2013-07-31 02:04:00,
2013-07-30 22:09:00,74.7,42.8,31.03,SSW,209,3.0,-999.0,32,-99.99,,,0.00,meteohub,2013-07-31 02:09:00,
2013-07-30 22:14:00,74.5,42.6,31.03,SSW,209,0.0,-999.0,32,-99.99,,,0.00,meteohub,2013-07-31 02:14:00,
2013-07-30 22:19:00,74.3,42.6,31.03,SSW,209,0.0,-999.0,32,-99.99,,,0.00,meteohub,2013-07-31 02:19:00,
2013-07-30 22:25:00,73.9,42.3,31.03,SSW,210,0.0,-999.0,32,-99.99,,,0.00,meteohub,2013-07-31 02:25:00,
2013-07-30 22:30:00,73.8,42.8,31.03,SSW,210,2.0,-999.0,33,-99.99,,,0.00,meteohub,2013-07-31 02:30:00,
2013-07-30 22:35:00,73.6,42.6,31.03,SSW,210,0.0,-999.0,33,-99.99,,,0.00,meteohub,2013-07-31 02:35:00,
2013-07-30 22:40:00,73.4,42.6,31.03,SSW,210,0.0,-999.0,33,-99.99,,,0.00,meteohub,2013-07-31 02:40:00,
2013-07-30 22:45:00,73.2,43.2,31.03,SSW,210,0.0,-999.0,34,-99.99,,,0.00,meteohub,2013-07-31 02:45:00,
2013-07-30 22:50:00,73.0,43.0,31.03,SSW,210,0.0,-999.0,34,-99.99,,,0.00,meteohub,2013-07-31 02:50:00,
2013-07-30 22:56:00,73.0,43.7,31.03,SSW,210,2.0,-999.0,35,-99.99,,,0.00,meteohub,2013-07-31 02:56:00,
2013-07-30 23:01:00,73.0,43.7,31.03,SSW,210,3.0,-999.0,35,-99.99,,,0.00,meteohub,2013-07-31 03:01:00,
2013-07-30 23:06:00,73.2,43.9,31.03,SSW,210,3.0,-999.0,35,-99.99,,,0.00,meteohub,2013-07-31 03:06:00,
2013-07-30 23:11:00,73.2,43.9,31.03,SSW,210,3.0,-999.0,35,-99.99,,,0.00,meteohub,2013-07-31 03:11:00,
2013-07-30 23:16:00,73.2,44.6,31.03,SW,215,5.0,-999.0,36,-99.99,,,0.00,meteohub,2013-07-31 03:16:00,
2013-07-30 23:22:00,73.0,44.4,31.03,SW,216,4.0,-999.0,36,-99.99,,,0.00,meteohub,2013-07-31 03:22:00,
2013-07-30 23:27:00,72.9,44.4,31.03,SW,219,5.0,-999.0,36,-99.99,,,0.00,meteohub,2013-07-31 03:27:00,
2013-07-30 23:32:00,72.9,44.4,31.03,SW,220,5.0,-999.0,36,-99.99,,,0.00,meteohub,2013-07-31 03:32:00,
2013-07-30 23:37:00,72.7,43.5,31.03,WSW,237,5.0,-999.0,35,-99.99,,,0.00,meteohub,2013-07-31 03:37:00,
2013-07-30 23:42:00,72.5,42.6,31.03,SW,231,3.0,-999.0,34,-99.99,,,0.00,meteohub,2013-07-31 03:42:00,
2013-07-30 23:47:00,72.7,42.6,31.03,SW,227,4.0,-999.0,34,-99.99,,,0.00,meteohub,2013-07-31 03:47:00,
2013-07-30 23:53:00,72.7,42.6,31.03,SW,230,4.0,-999.0,34,-99.99,,,0.00,meteohub,2013-07-31 03:53:00,
2013-07-30 23:58:00,72.7,42.6,31.03,WSW,240,3.0,-999.0,34,-99.99,,,0.00,meteohub,2013-07-31 03:58:00,